This demonstration page uses our WeatherBlox Daily Observations layout. Learn more.

Left ArrowRight Arrow

36.19886, -115.1175

Hourly Observations for February 22, 2022

Temp ( °F °C ) Dew Point ( °F °C ) Humidity (%) Winds ( mph kmh ) Pressure ( in mb ) Visibility ( mi km ) Precip ( " mm )
12:53 am 00:53 Clear 49 9.4 10 -12.2 21 21 NNW 8 13 29.78 1008 10 16 0.00 0.00
1:53 am 01:53 Clear 47 8.3 10 -12.2 22 22 NNW 5 7 29.79 1009 10 16 0.00 0.00
2:53 am 02:53 Clear 45 7.2 10 -12.2 24 24 Calm 29.79 1009 10 16 0.00 0.00
3:53 am 03:53 Clear 45 7.2 10 -12.2 24 24 Calm 29.80 1009 10 16 0.00 0.00
4:53 am 04:53 Clear 44 6.7 12 -11.1 27 27 Calm 29.80 1009 10 16 0.00 0.00
5:53 am 05:53 Clear 46 7.8 22 -5.6 38 38 SSW 15 24 29.79 1009 10 16 0.00 0.00
6:53 am 06:53 Sunny 47 8.3 23 -5 39 39 SSW 15 24 29.80 1009 10 16 0.00 0.00
7:53 am 07:53 Sunny 49 9.4 24 -4.4 38 38 S 12 19 29.80 1009 10 16 0.00 0.00
8:53 am 08:53 Sunny 51 10.6 22 -5.6 32 32 S 16 26 29.79 1009 10 16 0.00 0.00
9:53 am 09:53 Mostly Sunny 53 11.7 21 -6.1 28 28 S 16 26 29.79 1009 10 16 0.00 0.00
10:53 am 10:53 Sunny 56 13.3 19 -7.2 24 24 undefined N/A 29.77 1008 10 16 0.00 0.00
11:53 am 11:53 Mostly Sunny 57 13.9 20 -6.7 24 24 undefined N/A 29.75 1007 10 16 0.00 0.00
12:53 pm 12:53 Mostly Cloudy 54 12.2 20 -6.7 26 26 SSW 9 15 29.72 1006 10 16 0.00 0.00
1:53 pm 13:53 Mostly Sunny 58 14.4 18 -7.8 21 21 SSW 22 35 29.68 1005 10 16 0.00 0.00
2:53 pm 14:53 Mostly Cloudy 58 14.4 17 -8.3 20 20 undefined N/A 29.68 1005 10 16 0.00 0.00
3:53 pm 15:53 Mostly Cloudy 57 13.9 15 -9.4 19 19 undefined N/A 29.67 1005 10 16 0.00 0.00
4:53 pm 16:53 Mostly Cloudy 55 12.8 20 -6.7 25 25 undefined N/A 29.68 1005 10 16 0.00 0.00
5:53 pm 17:53 Mostly Cloudy 52 11.1 21 -6.1 30 30 undefined N/A 29.71 1006 10 16 0.00 0.00
6:53 pm 18:53 Mostly Cloudy with Light Rain 46 7.8 31 -0.6 56 56 undefined N/A 29.75 1008 10 16 0.00 0.00
7:53 pm 19:53 Cloudy with Light Rain 46 7.8 31 -0.6 56 56 undefined N/A 29.75 1007 10 16 0.00 0.00
8:53 pm 20:53 Clear 44 6.7 32 0 63 63 undefined N/A 29.77 1008 10 16 0.00 0.00
9:53 pm 21:53 Partly Cloudy 45 7.2 29 -1.7 54 54 undefined N/A 29.77 1008 10 16 0.00 0.00
10:53 pm 22:53 Clear 44 6.7 25 -3.9 47 47 undefined N/A 29.75 1007 10 16 0.00 0.00
11:53 pm 23:53 Clear 45 7.2 21 -6.1 39 39 undefined N/A 29.76 1008 10 16 0.00 0.00

Powered by AerisWeather